Moffett Field, CA

12:02 PM PST on February 06, 2016 (GMT -0800)
Moffett Federal Air Field

Weather History for KNUQ - August, 2013

Change the Weather History Date:

Sunday, August 11, 2013

  Actual Average Record
Temperature  
Mean Temperature 65 °F 68 °F  
Max Temperature 70 °F 77 °F 88 °F (1998)
Min Temperature 59 °F 59 °F 50 °F (1948)
Degree Days  
Heating Degree Days 0    
Month to date heating degree days 3  
Since 1 June heating degree days 17  
Since 1 July heating degree days 4  
Cooling Degree Days 0    
Month to date cooling degree days 5  
Year to date cooling degree days 270  
Since 1 June cooling degree days 196  
Growing Degree Days 14 (Base 50)    
Moisture  
Dew Point 56 °F    
Average Humidity 74    
Maximum Humidity 84    
Minimum Humidity 63    
Precipitation  
Precipitation 0.00 in 0.00 in 0.19 in (1965)
Month to date precipitation 0.00 0.00  
Year to date precipitation 1.82 9.65  
Since 1 July precipitation T  
Sea Level Pressure  
Sea Level Pressure 30.02 in    
Wind  
Wind Speed 7 mph (North)    
Max Wind Speed 16 mph    
Max Gust Speed 20 mph    
Visibility 10 miles    
Events      
T = Trace of Precipitation, MM = Missing Value Source: NWS Daily Summary

Daily Weather History Graph

Daily Weather History Graph

Search for Another Location

Airport or City:

Trip Planner

Search our weather history database for the weather conditions in past years. The results will help you decide how hot, cold, wet, or windy it might be!

Date:

Astronomy

Aug. 11, 2013 Rise Set
Actual Time 6:21 AM PDT 8:04 PM PDT
Civil Twilight 5:53 AM PDT 8:32 PM PDT
Nautical Twilight 5:19 AM PDT 9:06 PM PDT
Astronomical Twilight 4:43 AM PDT 9:42 PM PDT
Moon 11:07 AM PDT (8/11) 10:31 PM PDT (8/11)
Length of Visible Light 14h 39m
Length of Day
13h 43m
Waxing Crescent, 23% of the Moon is Illuminated
Aug 11
Waxing Crescent
Aug 14
First Quarter
Aug 20
Full
Aug 28
Last Quarter
Sep 5
New

Hourly Weather History & Observations

Time (PDT) Temp. Dew Point Humidity Pressure Visibility Wind Dir Wind Speed Gust Speed Precip Events Conditions
12:56 AM 62.1 °F 57.0 °F 84% 30.05 in 10.0 mi Calm Calm - N/A   Overcast
1:56 AM 62.1 °F 57.0 °F 84% 30.04 in 10.0 mi Calm Calm - N/A   Overcast
2:56 AM 62.1 °F 57.0 °F 84% 30.04 in 10.0 mi North 4.6 mph - N/A   Overcast
3:56 AM 62.1 °F 57.0 °F 84% 30.03 in 10.0 mi NNE 3.5 mph - N/A   Overcast
4:56 AM 62.1 °F 57.0 °F 84% 30.04 in 10.0 mi North 5.8 mph - N/A   Overcast
5:56 AM 61.0 °F 55.9 °F 83% 30.04 in 10.0 mi North 5.8 mph - N/A   Overcast
6:56 AM 61.0 °F 55.9 °F 83% 30.05 in 10.0 mi NW 3.5 mph - N/A   Overcast
7:56 AM 62.1 °F 55.9 °F 80% 30.05 in 10.0 mi North 5.8 mph - N/A   Overcast
8:56 AM 63.0 °F 55.9 °F 78% 30.06 in 10.0 mi NNE 4.6 mph - N/A   Overcast
9:56 AM 64.0 °F 55.9 °F 75% 30.05 in 10.0 mi NNW 3.5 mph - N/A   Mostly Cloudy
10:33 AM 66.2 °F 55.4 °F 68% 30.04 in 10.0 mi North 5.8 mph - N/A   Partly Cloudy
10:56 AM 66.9 °F 55.9 °F 68% 30.05 in 10.0 mi North 8.1 mph - N/A   Partly Cloudy
11:56 AM 66.9 °F 57.0 °F 70% 30.04 in 10.0 mi North 8.1 mph - N/A   Partly Cloudy
12:56 PM 66.9 °F 55.9 °F 68% 30.04 in 10.0 mi North 11.5 mph - N/A   Clear
1:56 PM 66.9 °F 55.9 °F 68% 30.02 in 10.0 mi NNW 11.5 mph - N/A   Clear
2:56 PM 68.0 °F 55.9 °F 65% 30.01 in 10.0 mi NNW 13.8 mph - N/A   Clear
3:56 PM 69.1 °F 57.0 °F 65% 30.00 in 10.0 mi NNW 11.5 mph 18.4 mph N/A   Clear
4:56 PM 69.1 °F 57.0 °F 65% 29.98 in 10.0 mi NNW 12.7 mph - N/A   Clear
5:56 PM 68.0 °F 57.0 °F 68% 29.98 in 10.0 mi NNW 9.2 mph - N/A   Clear
6:56 PM 64.9 °F 57.0 °F 75% 29.98 in 10.0 mi NNW 12.7 mph - N/A   Clear
7:56 PM 63.0 °F 57.0 °F 81% 29.99 in 10.0 mi North 12.7 mph - N/A   Clear
8:56 PM 62.1 °F 57.0 °F 84% 30.00 in 10.0 mi North 11.5 mph - N/A   Clear
9:24 PM 60.8 °F 55.4 °F 82% 30.00 in 10.0 mi North 9.2 mph - N/A   Mostly Cloudy
9:56 PM 61.0 °F 55.9 °F 83% 30.01 in 10.0 mi North 6.9 mph - N/A   Overcast
10:56 PM 60.1 °F 55.9 °F 86% 30.02 in 10.0 mi North 4.6 mph - N/A   Overcast
11:56 PM 60.1 °F 55.9 °F 86% 30.01 in 10.0 mi Calm Calm - N/A   Overcast